FW3021 Weather Reports


Display with metric or nautical units.
time (UTC)temp
F
wind
direction
speed
MPH
gust
MPH
rain 1hr
in
rain 24hr
in
rain mn
in
humidity
%
barometer
mb
20260904082517 60 0 3.0 9.0 0.17 0.36 0.19 83 1012.6
20260904081517 60 0 2.0 8.0 0.18 0.36 0.19 82 1013.6
20260904080537 60 0 4.0 11.0 0.17 0.34 0.17 81 1012.7
20260904075517 61 0 4.0 11.0 0.07 0.24 0.07 81 1014.2
20260904074516 61 0 4.0 13.0 0.06 0.23 0.06 80 1013.6
20260904073537 61 0 4.0 13.0 0.04 0.21 0.04 80 1013.3
20260904072517 61 0 3.0 9.0 0.02 0.19 0.02 79 1013.6
20260904071517 61 0 3.0 8.0 0.01 0.18 0.01 79 1013.5
20260904070537 61 0 4.0 11.0 0.00 0.17 0.00 78 1013.2
20260904065517 61 0 3.0 10.0 0.00 0.17 0.00 78 1013.5
20260904064517 62 0 3.0 10.0 0.00 0.17 0.00 78 1013.7
20260904063517 62 0 4.0 13.0 0.00 0.17 0.00 79 1013.8
20260904062517 62 0 4.0 12.0 0.00 0.17 0.00 79 1013.9
20260904061517 61 0 4.0 14.0 0.00 0.17 0.00 79 1014.1
20260904060517 61 0 3.0 8.0 0.00 0.17 0.00 80 1013.9
20260904055517 61 0 3.0 7.0 0.00 0.17 0.00 80 1014.2
20260904054517 61 0 2.0 10.0 0.00 0.17 0.00 80 1014.1
20260904053517 61 0 4.0 9.0 0.00 0.17 0.00 80 1013.9
20260904052517 61 0 4.0 9.0 0.00 0.17 0.00 80 1013.8
20260904051517 61 0 3.0 11.0 0.00 0.17 0.00 80 1014.0
20260904050517 61 0 4.0 14.0 0.01 0.17 0.00 80 1013.6
20260904045537 61 0 4.0 11.0 0.01 0.17 0.17 81 1013.2
20260904044537 61 0 4.0 10.0 0.01 0.17 0.17 81 1013.5
20260904043537 61 0 4.0 10.0 0.01 0.17 0.17 80 1013.3
20260904042517 61 0 3.0 13.0 0.01 0.17 0.17 80 1013.6
20260904041517 62 0 2.0 6.0 0.01 0.17 0.17 80 1014.0
20260904040517 62 0 3.0 9.0 0.01 0.16 0.16 79 1014.8
20260904035517 62 0 4.0 9.0 0.03 0.16 0.16 79 1014.5
20260904034517 62 0 3.0 12.0 0.09 0.16 0.16 80 1013.9
20260904033517 62 0 2.0 8.0 0.11 0.16 0.16 80 1014.7
20260904032517 62 0 1.0 4.0 0.12 0.16 0.16 79 1014.8
20260904031557 62 0 2.0 5.0 0.12 0.16 0.16 79 1014.3
20260904030517 62 0 2.0 6.0 0.11 0.15 0.15 79 1014.5
20260904025517 63 0 2.0 5.0 0.09 0.13 0.13 79 1016.0
20260904024517 63 0 3.0 10.0 0.07 0.07 0.07 79 1016.4
20260904023517 63 0 4.0 10.0 0.05 0.05 0.05 78 1014.8
20260904022517 63 0 5.0 12.0 0.04 0.04 0.04 78 1014.0
20260904021537 63 0 4.0 9.0 0.04 0.04 0.04 78 1014.0
20260904020517 63 0 4.0 12.0 0.04 0.04 0.04 78 1013.8
20260904015537 64 0 4.0 11.0 0.04 0.04 0.04 77 1013.9
20260904014517 65 0 4.0 10.0 0.00 0.00 0.00 74 1013.8
20260904013517 65 0 3.0 10.0 0.00 0.00 0.00 74 1013.6
20260904012517 65 0 5.0 11.0 0.00 0.00 0.00 75 1013.6
20260904011517 65 0 3.0 10.0 0.00 0.00 0.00 75 1013.6
20260904010517 65 0 3.0 9.0 0.00 0.00 0.00 75 1013.4
20260904005517 65 0 3.0 9.0 0.00 0.00 0.00 75 1013.2
20260904004517 65 0 3.0 13.0 0.00 0.00 0.00 75 1013.1
20260904003517 65 0 4.0 14.0 0.00 0.00 0.00 76 1013.2
20260904002517 65 0 4.0 12.0 0.00 0.00 0.00 75 1013.1
20260904001517 65 0 4.0 11.0 0.00 0.00 0.00 75 1013.1
20260904000517 65 0 3.0 11.0 0.00 0.00 0.00 74 1013.1
20260903235517 65 0 5.0 11.0 0.00 0.00 0.00 73 1012.7
20260903234517 66 0 4.0 11.0 0.00 0.00 0.00 72 1012.9
20260903233517 66 0 4.0 14.0 0.00 0.00 0.00 71 1012.7
20260903232537 66 0 4.0 8.0 0.00 0.00 0.00 70 1013.0
20260903231516 67 0 5.0 12.0 0.00 0.00 0.00 70 1012.9
20260903230537 67 0 4.0 12.0 0.00 0.00 0.00 70 1013.0
20260903225516 67 0 3.0 11.0 0.00 0.00 0.00 70 1012.8
20260903224517 67 0 6.0 12.0 0.00 0.00 0.00 70 1012.7
20260903223516 67 0 5.0 12.0 0.00 0.00 0.00 70 1012.7
20260903222517 67 0 5.0 12.0 0.00 0.00 0.00 69 1012.7
20260903221516 67 0 5.0 13.0 0.00 0.00 0.00 70 1012.9
20260903220516 67 0 4.0 14.0 0.00 0.00 0.00 71 1012.9
20260903215517 67 0 5.0 11.0 0.00 0.00 0.00 71 1012.9
20260903214516 67 0 5.0 14.0 0.00 0.00 0.00 71 1012.8
20260903213516 67 0 4.0 11.0 0.00 0.00 0.00 71 1012.8
20260903212517 67 0 4.0 13.0 0.00 0.00 0.00 72 1012.7
20260903211516 67 0 5.0 11.0 0.00 0.00 0.00 71 1013.0
20260903210536 68 0 5.0 14.0 0.00 0.00 0.00 70 1013.1
20260903205517 69 0 4.0 12.0 0.00 0.00 0.00 69 1013.2
20260903204516 69 0 4.0 12.0 0.00 0.00 0.00 68 1013.2
20260903203536 69 0 4.0 11.0 0.00 0.00 0.00 69 1013.2
20260903202536 69 0 4.0 12.0 0.00 0.00 0.00 69 1013.2
20260903201516 69 0 5.0 13.0 0.00 0.00 0.00 68 1013.4
20260903200516 70 0 3.0 10.0 0.00 0.00 0.00 68 1013.5
20260903195516 69 0 4.0 13.0 0.00 0.00 0.00 68 1013.6
20260903194536 69 0 5.0 12.0 0.00 0.00 0.00 69 1013.5
20260903193536 69 0 4.0 9.0 0.00 0.00 0.00 69 1013.4
20260903192516 69 0 5.0 12.0 0.00 0.00 0.00 68 1013.4
20260903191536 69 0 4.0 12.0 0.00 0.00 0.00 68 1013.5
20260903190516 70 0 4.0 10.0 0.00 0.00 0.00 68 1013.7
20260903185536 69 0 4.0 11.0 0.00 0.00 0.00 68 1013.9
20260903184536 69 0 4.0 14.0 0.00 0.00 0.00 68 1013.9
20260903183516 70 0 5.0 12.0 0.00 0.00 0.00 67 1013.8
20260903182516 70 0 4.0 10.0 0.00 0.00 0.00 67 1014.0
20260903181516 70 0 5.0 12.0 0.00 0.00 0.00 67 1013.9
20260903180516 69 0 6.0 13.0 0.00 0.00 0.00 67 1013.8
20260903175536 70 0 5.0 14.0 0.00 0.00 0.00 67 1014.0
20260903174516 70 0 6.0 11.0 0.00 0.00 0.00 66 1014.1
20260903173516 70 0 4.0 11.0 0.00 0.00 0.00 65 1014.2
20260903172516 70 0 4.0 13.0 0.00 0.00 0.00 66 1014.0
20260903171516 70 0 5.0 13.0 0.00 0.00 0.00 65 1014.1
20260903170516 70 0 6.0 12.0 0.00 0.00 0.00 65 1014.1
20260903165516 70 0 4.0 12.0 0.00 0.00 0.00 65 1014.4
20260903164516 70 0 4.0 16.0 0.00 0.00 0.00 67 1014.4
20260903163516 69 0 6.0 12.0 0.00 0.00 0.00 66 1014.3
20260903162516 69 0 6.0 17.0 0.00 0.00 0.00 66 1014.7
20260903161516 70 0 3.0 12.0 0.00 0.00 0.00 66 1014.8
20260903160516 69 0 5.0 16.0 0.00 0.00 0.00 66 1014.8
20260903155516 69 0 6.0 14.0 0.00 0.00 0.00 67 1014.9
20260903154536 70 0 5.0 12.0 0.00 0.00 0.00 66 1015.0
20260903153516 69 0 4.0 14.0 0.00 0.00 0.00 66 1014.8
20260903152516 69 0 4.0 9.0 0.00 0.00 0.00 67 1014.9
20260903151536 69 0 5.0 12.0 0.00 0.00 0.00 67 1015.0
20260903150516 69 0 5.0 13.0 0.00 0.00 0.00 66 1014.9
20260903145516 69 0 4.0 11.0 0.00 0.00 0.00 67 1014.8
20260903144516 70 0 3.0 7.0 0.00 0.00 0.00 67 1014.9
20260903143516 69 0 4.0 11.0 0.00 0.00 0.00 67 1014.9
20260903142516 69 0 4.0 10.0 0.00 0.00 0.00 67 1014.7
20260903141516 69 0 3.0 11.0 0.00 0.00 0.00 67 1014.7
20260903140536 69 0 4.0 12.0 0.00 0.00 0.00 66 1014.6
20260903135556 69 0 4.0 11.0 0.00 0.00 0.00 67 1014.7
20260903134516 68 0 3.0 9.0 0.00 0.00 0.00 67 1014.6
20260903133516 68 0 2.0 6.0 0.00 0.00 0.00 67 1014.5
20260903132515 68 0 2.0 9.0 0.00 0.00 0.00 67 1014.5
20260903131515 68 0 4.0 10.0 0.00 0.00 0.00 67 1014.3
20260903130515 67 0 2.0 6.0 0.00 0.00 0.00 69 1014.3
20260903125556 66 0 2.0 8.0 0.00 0.00 0.00 70 1014.2
20260903124515 65 0 2.0 5.0 0.00 0.00 0.00 72 1014.1
20260903123536 64 0 2.0 5.0 0.00 0.00 0.00 74 1014.0
20260903122516 63 0 2.0 5.0 0.00 0.00 0.00 75 1013.9
20260903121515 62 0 2.0 6.0 0.00 0.00 0.00 77 1013.8
20260903120535 62 0 2.0 5.0 0.00 0.00 0.00 77 1014.0
20260903115515 61 0 3.0 6.0 0.00 0.00 0.00 78 1013.9
20260903114515 61 0 3.0 6.0 0.00 0.00 0.00 79 1014.0
20260903113517 60 0 3.0 7.0 0.00 0.00 0.00 80 1013.8
20260903112517 60 0 3.0 7.0 0.00 0.00 0.00 81 1013.9
20260903111517 60 0 3.0 6.0 0.00 0.00 0.00 82 1013.8
20260903110517 59 0 3.0 8.0 0.00 0.00 0.00 85 1013.7
20260903105517 58 0 3.0 5.0 0.00 0.00 0.00 86 1013.6
20260903104517 57 0 3.0 4.0 0.00 0.00 0.00 86 1013.7
20260903103517 57 0 2.0 4.0 0.00 0.00 0.00 86 1013.6
20260903102557 57 0 2.0 4.0 0.00 0.00 0.00 86 1013.4
20260903101538 57 0 2.0 4.0 0.00 0.00 0.00 86 1013.2
20260903100517 57 0 3.0 4.0 0.00 0.00 0.00 86 1013.2
20260903095517 57 0 3.0 5.0 0.00 0.00 0.00 87 1013.2
20260903094517 57 0 3.0 3.0 0.00 0.00 0.00 86 1013.1
20260903093517 57 338 3.0 3.0 0.00 0.00 0.00 86 1013.1
20260903092517 57 338 3.0 4.0 0.00 0.00 0.00 86 1013.1
20260903091517 57 0 3.0 3.0 0.00 0.00 0.00 86 1013.2
20260903090517 57 0 3.0 4.0 0.00 0.00 0.00 86 1013.2
20260903085517 57 0 3.0 3.0 0.00 0.00 0.00 86 1013.2
20260903084517 57 0 2.0 3.0 0.00 0.00 0.00 86 1013.2
20260903083517 57 0 2.0 4.0 0.00 0.00 0.00 86 1013.2